Location: Newark
(30.4994°N, 96.8283°W)
Time: 19:38:32
(UTC+00:00)

Envisat - Pass Details

Date: 23 November 2019
Orbit: 764 x 766 km, 98.1° (Epoch: 12 December)

Event Time Altitude Azimuth Distance (km) Brightness Sun altitude
Rises 11:56:44 0° 38° (NE) 3,230 6.5 -13.6°
Reaches altitude 10° 12:00:23 10° 66° (ENE) 2,299 6.2 -12.9°
Maximum altitude 12:02:43 13° 93° (E) 2,083 6.5 -12.4°
Drops below altitude 10° 12:05:02 10° 121° (ESE) 2,293 6.8 -11.9°
Sets 12:08:38 0° 148° (SSE) 3,214 7.1 -11.2°
